Wind_Speed
26 26 27 28 28 28 28 27 27 28 27 27 26 26 27 26 26 26 27 27 27 27 28 28 28 28 28 28 28 28 28 27 27 26 26 25 25 25 24 24 24 24 23
27 27 27 28 28 29 29 28 28 29 29 29 28 27 27 28 28 28 28 28 28 28 29 29 29 29 28 29 29 29 29 28 28 27 27 27 26 26 25 25 24 25 25
27 27 27 28 29 29 29 29 29 30 30 30 30 29 29 29 29 29 29 29 30 30 31 30 30 30 29 30 30 30 30 30 29 29 29 28 27 27 26 26 26 25 25
28 28 28 29 30 30 30 30 31 31 31 31 30 30 31 31 31 30 30 31 31 32 32 32 31 31 30 31 30 30 31 31 31 30 29 29 28 28 28 27 27 27 26
29 29 29 30 31 31 31 31 31 32 32 32 32 32 32 32 32 32 32 32 32 33 33 33 32 32 32 32 32 31 32 32 32 31 31 30 30 29 29 28 29 28 27
31 31 30 31 32 32 32 33 33 33 34 34 34 34 34 34 34 34 34 34 33 34 34 34 34 33 33 33 33 33 33 32 32 32 32 31 31 31 31 30 30 29 29
32 32 32 32 32 33 34 35 35 34 34 35 35 36 35 35 35 35 35 35 35 35 35 35 34 34 34 34 33 33 33 33 33 32 32 32 32 31 32 31 31 30 30
33 33 34 34 34 34 35 35 35 35 35 36 37 37 37 37 37 36 36 37 36 36 36 36 35 34 35 34 34 34 33 33 34 34 34 33 33 33 33 33 33 32 31
33 34 34 34 35 35 35 35 35 36 36 37 37 37 38 38 38 38 37 37 37 36 36 37 37 36 35 35 34 34 34 34 34 34 35 35 34 34 34 34 33 33 32
34 34 34 35 35 35 36 36 36 36 37 37 37 37 37 38 38 38 37 37 37 37 37 37 37 36 35 35 35 34 34 35 35 35 35 35 35 36 36 35 35 34 34
34 34 34 35 35 35 36 36 35 35 35 36 36 36 36 36 36 37 37 37 37 37 37 37 37 36 36 36 36 36 35 36 36 35 34 34 35 36 36 36 35 35 34
34 34 35 35 35 35 35 35 35 35 35 35 35 35 35 36 36 37 37 37 37 37 38 38 38 38 38 38 37 36 37 37 37 36 36 36 36 36 36 36 35 36 35
34 34 34 34 35 35 35 35 35 35 35 35 35 35 35 36 36 37 37 37 37 37 38 39 39 39 39 39 39 38 38 38 38 38 37 37 37 36 36 36 36 36 35
35 34 34 34 34 34 34 34 34 34 35 35 35 35 35 36 36 37 38 38 38 38 39 38 39 38 39 39 38 38 39 39 39 39 38 37 37 36 36 36 36 35 35
35 35 34 33 33 33 34 33 33 33 33 34 34 35 35 36 37 38 38 39 39 39 39 39 39 38 38 38 38 38 38 38 37 37 36 36 36 36 36 35 35 35 35
34 34 34 34 34 34 33 33 33 32 33 33 34 35 35 36 37 37 38 38 38 37 37 38 37 37 37 37 37 36 37 37 37 36 35 35 35 35 35 35 34 34 34
34 33 34 34 34 33 33 33 33 33 33 33 34 35 35 35 35 36 37 37 37 37 36 35 34 34 35 35 35 35 35 35 36 35 35 35 34 34 34 34 34 33 33
34 34 34 33 32 33 33 33 33 33 33 34 34 35 35 35 36 37 37 36 36 36 34 33 33 33 33 34 35 35 35 34 35 35 35 35 34 34 34 33 32 32 32
35 34 34 33 33 32 32 32 32 33 33 34 34 35 35 36 37 37 36 35 35 34 34 34 34 33 33 33 33 34 34 34 34 34 34 34 34 34 33 32 32 32 32
34 33 33 33 33 33 32 32 33 33 34 34 35 35 35 36 36 35 34 34 33 33 32 33 33 33 32 33 33 32 32 32 32 32 33 33 33 32 32 32 32 33 32
34 33 33 33 33 33 33 33 34 34 35 35 35 35 35 35 34 33 32 31 31 31 31 31 32 32 32 31 31 31 31 31 31 31 31 31 31 31 31 32 32 32 32
34 34 34 34 34 34 34 34 35 35 35 35 35 35 35 34 33 32 31 31 31 30 30 30 31 32 32 30 30 30 30 31 31 30 29 29 30 30 30 31 31 31 31
34 34 34 34 35 35 35 35 35 35 35 35 35 35 35 34 33 31 31 30 30 30 30 30 30 30 31 31 30 30 30 30 30 29 29 29 29 29 29 29 30 30 31
34 34 34 35 35 36 35 35 35 35 35 35 35 34 33 32 32 31 30 29 30 30 29 28 28 29 29 29 29 29 29 30 29 29 29 29 29 29 29 29 29 29 30
33 33 33 34 35 35 35 35 35 35 35 35 34 33 32 31 30 29 29 29 28 28 27 27 26 27 27 27 27 28 28 28 28 28 28 28 28 29 29 29 29 29 29
32 32 32 33 33 34 34 33 34 34 34 34 33 32 32 30 29 29 28 27 27 27 27 27 27 26 26 25 25 26 27 27 27 27 27 27 28 28 28 28 28 29 29
Wind_Direction
284 284 283 283 284 284 282 282 282 281 281 282 282 282 282 282 283 283 285 285 285 287 287 286 284 284 284 283 283 283 282 281 280 279 280 281 281 280 279 277 276 275 275
283 283 283 283 284 283 283 283 282 282 281 280 280 280 280 281 282 283 284 285 286 286 287 286 285 285 283 282 282 281 281 280 279 279 279 280 279 279 278 276 276 276 275
285 284 283 284 284 284 283 283 282 282 282 281 279 279 278 279 281 282 282 284 285 285 286 286 285 285 283 283 281 280 279 278 279 279 278 279 278 276 275 275 274 274 275
286 285 284 284 285 285 284 283 282 282 281 280 280 279 279 280 280 281 281 283 284 284 285 285 285 284 283 283 282 281 279 278 278 278 278 278 277 275 275 274 272 272 273
285 285 285 286 285 285 284 283 283 281 281 280 280 280 280 281 281 282 281 281 283 283 284 284 284 284 283 282 281 281 279 278 276 276 277 277 276 274 274 273 272 271 272
285 284 285 285 285 284 284 284 284 282 281 281 280 280 280 280 281 282 282 282 282 282 283 283 283 283 282 281 280 280 279 278 276 275 275 275 275 274 273 273 272 271 271
287 286 285 284 284 285 285 286 286 284 282 281 280 280 279 280 280 281 280 281 281 282 282 282 282 282 281 280 280 279 278 277 276 275 274 274 274 273 273 272 272 271 271
288 287 287 286 285 286 286 287 287 286 284 282 281 279 278 279 280 280 280 279 280 282 282 281 281 281 281 280 279 278 277 277 276 274 273 273 273 272 272 271 270 271 271
289 288 287 286 286 286 287 287 287 286 285 283 281 280 279 279 279 279 279 280 280 280 281 281 281 280 279 278 279 278 276 276 276 274 273 272 272 272 271 271 270 269 269
289 289 287 287 286 286 287 287 287 287 286 284 283 281 280 279 278 279 279 279 279 279 279 280 281 280 278 277 278 277 276 276 275 275 274 273 272 271 271 270 269 268 268
290 289 288 287 288 288 288 287 287 287 287 286 285 283 281 280 278 279 279 279 279 279 279 279 279 278 277 277 277 276 276 275 276 275 273 273 273 272 271 271 269 267 268
291 290 289 288 289 289 289 287 287 286 286 286 285 284 282 281 280 280 281 281 281 280 279 277 278 277 276 276 276 275 274 274 273 274 274 274 273 272 271 271 269 268 267
291 291 291 291 290 290 290 288 287 286 286 287 286 285 283 282 281 281 281 282 283 282 280 278 278 278 277 276 276 276 275 275 274 274 274 274 273 272 271 270 268 267 267
291 291 292 292 292 292 292 290 289 288 287 287 287 286 286 284 283 282 282 281 281 282 280 280 280 279 279 278 276 276 276 276 275 275 274 273 272 270 270 269 268 267 266
290 290 291 292 292 292 292 292 292 290 290 289 288 289 288 287 285 284 284 283 282 282 280 279 280 280 280 278 276 276 276 276 275 274 274 273 271 270 270 269 267 265 264
291 290 290 290 291 292 292 292 292 292 291 291 291 290 289 289 288 286 285 285 283 282 281 280 279 279 279 278 277 276 275 275 275 275 273 273 272 271 269 268 267 266 265
291 291 291 290 291 291 291 292 292 292 292 292 292 292 291 292 291 290 289 286 284 283 282 280 279 280 279 278 278 277 275 274 274 274 273 272 271 270 269 268 267 266 264
291 290 290 290 290 291 292 293 293 293 292 293 293 293 293 293 293 293 291 287 285 284 281 279 279 280 280 279 279 279 277 275 274 273 272 272 271 270 269 268 266 264 264
291 290 290 289 290 291 292 293 293 293 294 294 294 295 294 294 295 294 292 289 286 284 282 280 280 281 281 281 279 279 278 275 274 274 272 271 270 269 267 266 265 263 262
292 291 289 289 289 290 292 293 293 293 294 295 295 295 295 295 295 294 291 289 287 285 283 281 281 281 280 281 281 280 279 277 275 274 272 270 269 267 265 265 264 262 260
291 290 289 289 289 290 291 292 293 293 294 296 297 297 297 297 296 294 291 290 288 287 285 284 283 281 281 281 280 278 278 278 277 274 272 270 268 266 264 264 263 262 261
291 289 288 288 289 290 291 292 294 294 295 295 296 297 297 297 296 294 292 291 289 287 286 286 285 283 282 280 279 278 277 277 276 275 273 271 269 267 266 265 263 262 261
292 290 289 289 289 291 291 292 293 294 295 295 296 297 298 297 295 294 293 292 290 287 285 285 284 284 282 280 278 277 277 276 275 274 272 270 270 269 267 265 264 262 261
292 291 291 290 290 291 291 291 292 293 294 295 296 297 297 297 296 294 293 293 292 290 288 287 286 285 284 281 279 277 276 276 275 273 272 270 270 271 269 267 265 264 262
294 293 293 293 293 293 292 293 293 294 294 295 295 295 296 296 295 294 294 293 292 291 289 287 287 287 285 282 280 278 276 275 275 273 272 270 270 271 270 267 265 263 261
297 296 295 295 295 294 295 295 296 296 295 295 295 294 294 294 292 293 292 292 292 290 289 287 286 286 285 283 281 280 278 277 275 272 272 271 271 270 269 267 264 262 261
Height
5793 5792 5791 5790 5789 5789 5788 5788 5787 5786 5786 5785 5785 5784 5784 5783 5782 5781 5780 5779 5779 5778 5776 5775 5774 5773 5772 5771 5770 5769 5768 5768 5767 5767 5766 5765 5765 5764 5764 5763 5763 5763 5763
5786 5785 5784 5783 5782 5781 5780 5780 5779 5779 5778 5777 5777 5776 5776 5775 5774 5773 5772 5772 5771 5770 5768 5767 5766 5765 5764 5763 5762 5761 5760 5760 5759 5759 5758 5758 5757 5757 5756 5756 5755 5755 5755
5779 5777 5776 5775 5774 5773 5772 5772 5771 5771 5770 5769 5769 5768 5767 5767 5766 5765 5764 5763 5762 5761 5760 5758 5757 5756 5755 5754 5753 5752 5752 5751 5751 5751 5750 5750 5749 5749 5749 5749 5748 5748 5747
5771 5770 5769 5767 5766 5765 5764 5763 5763 5762 5761 5761 5760 5759 5759 5758 5757 5756 5755 5754 5753 5752 5751 5749 5748 5747 5746 5745 5744 5743 5742 5742 5742 5741 5741 5741 5740 5740 5740 5740 5740 5740 5740
5763 5762 5761 5759 5758 5757 5755 5754 5754 5753 5752 5751 5751 5750 5749 5749 5748 5746 5746 5745 5744 5742 5741 5740 5739 5737 5736 5735 5734 5733 5733 5732 5732 5732 5732 5732 5731 5731 5732 5732 5732 5732 5731
5755 5754 5752 5751 5749 5748 5747 5745 5744 5743 5743 5742 5741 5740 5739 5739 5738 5737 5736 5735 5734 5733 5731 5730 5729 5727 5726 5725 5724 5723 5723 5722 5722 5722 5722 5722 5722 5722 5722 5722 5722 5723 5723
5747 5745 5744 5742 5741 5739 5738 5736 5735 5734 5732 5731 5731 5730 5729 5728 5727 5726 5725 5724 5723 5722 5721 5720 5718 5717 5716 5715 5714 5713 5712 5711 5711 5712 5712 5712 5712 5712 5712 5713 5712 5713 5713
5738 5736 5734 5733 5731 5730 5728 5726 5725 5723 5722 5721 5720 5719 5718 5717 5716 5715 5714 5713 5712 5711 5710 5709 5708 5706 5705 5704 5703 5703 5702 5701 5701 5701 5701 5701 5701 5701 5701 5702 5702 5702 5703
5729 5726 5725 5723 5722 5720 5718 5716 5715 5713 5711 5710 5708 5707 5707 5706 5705 5704 5703 5702 5701 5700 5699 5698 5696 5695 5694 5693 5693 5692 5692 5691 5690 5690 5690 5690 5690 5690 5690 5690 5691 5692 5692
5719 5717 5715 5713 5711 5709 5708 5706 5704 5702 5700 5699 5697 5696 5695 5694 5693 5692 5691 5691 5690 5689 5688 5687 5685 5684 5683 5682 5681 5681 5681 5680 5679 5679 5679 5679 5679 5679 5679 5679 5679 5680 5681
5710 5707 5705 5703 5701 5699 5697 5695 5693 5692 5690 5688 5686 5685 5684 5683 5681 5680 5679 5679 5678 5677 5676 5675 5674 5673 5672 5671 5670 5670 5669 5669 5668 5668 5668 5668 5667 5667 5667 5667 5668 5669 5670
5700 5698 5695 5693 5691 5689 5687 5685 5683 5681 5679 5677 5676 5674 5673 5671 5670 5669 5668 5667 5666 5665 5664 5663 5662 5661 5660 5659 5658 5658 5657 5657 5657 5657 5656 5656 5656 5656 5656 5656 5656 5657 5657
5690 5688 5685 5683 5681 5679 5677 5674 5672 5671 5669 5667 5665 5664 5662 5661 5659 5658 5656 5655 5654 5653 5652 5651 5650 5648 5647 5647 5646 5645 5645 5645 5644 5644 5644 5644 5644 5644 5644 5644 5644 5645 5646
5680 5678 5676 5674 5671 5669 5667 5664 5662 5660 5658 5657 5655 5653 5651 5650 5648 5647 5645 5644 5642 5641 5640 5638 5637 5635 5634 5634 5633 5633 5632 5632 5632 5632 5632 5631 5631 5631 5632 5632 5633 5633 5634
5670 5668 5666 5664 5662 5659 5657 5655 5652 5650 5648 5646 5644 5642 5641 5639 5637 5635 5633 5631 5630 5628 5627 5626 5624 5623 5622 5621 5621 5620 5619 5619 5619 5619 5619 5619 5619 5619 5619 5620 5621 5621 5623
5660 5658 5656 5654 5652 5650 5647 5645 5643 5641 5638 5636 5633 5632 5630 5628 5626 5624 5621 5619 5617 5615 5614 5613 5611 5610 5609 5609 5608 5607 5607 5607 5606 5606 5606 5606 5607 5607 5607 5608 5608 5609 5611
5650 5648 5646 5644 5642 5640 5638 5636 5634 5631 5629 5626 5624 5621 5619 5617 5614 5612 5609 5607 5604 5602 5601 5600 5599 5598 5597 5596 5596 5595 5594 5594 5594 5594 5594 5594 5594 5595 5595 5596 5596 5597 5599
5640 5638 5636 5634 5632 5630 5628 5626 5624 5621 5619 5617 5614 5611 5608 5606 5603 5600 5597 5595 5593 5591 5590 5589 5587 5586 5585 5584 5584 5583 5582 5581 5581 5581 5581 5582 5582 5582 5583 5584 5585 5586 5587
5630 5628 5626 5624 5622 5620 5618 5616 5614 5611 5609 5606 5604 5601 5598 5595 5592 5589 5585 5584 5582 5580 5578 5577 5576 5575 5574 5573 5572 5571 5570 5569 5569 5569 5569 5569 5570 5570 5571 5572 5574 5575 5576
5620 5618 5616 5614 5612 5610 5608 5606 5604 5602 5599 5596 5594 5591 5587 5584 5581 5578 5575 5572 5570 5569 5567 5566 5564 5563 5562 5561 5560 5559 5559 5558 5557 5557 5557 5558 5558 5558 5560 5561 5562 5563 5565
5610 5608 5606 5604 5602 5600 5598 5596 5594 5592 5589 5586 5583 5580 5577 5573 5570 5567 5564 5562 5560 5558 5556 5555 5554 5553 5551 5550 5550 5549 5548 5548 5547 5546 5546 5546 5547 5547 5549 5550 5551 5552 5554
5600 5598 5596 5594 5592 5590 5588 5586 5584 5581 5579 5576 5573 5570 5566 5563 5560 5557 5554 5552 5550 5548 5546 5545 5543 5542 5541 5540 5539 5538 5538 5537 5537 5536 5536 5536 5536 5537 5538 5539 5540 5541 5543
5589 5587 5586 5584 5582 5580 5577 5575 5573 5571 5568 5565 5562 5559 5556 5553 5550 5547 5545 5542 5540 5538 5536 5535 5533 5532 5530 5529 5528 5528 5528 5527 5527 5526 5526 5526 5527 5527 5528 5529 5530 5531 5532
5579 5577 5575 5573 5571 5569 5567 5564 5562 5560 5557 5555 5552 5549 5546 5543 5540 5537 5535 5533 5531 5529 5527 5525 5523 5522 5520 5519 5518 5517 5517 5516 5516 5516 5516 5516 5517 5517 5518 5518 5519 5521 5522
5570 5567 5565 5563 5561 5558 5556 5554 5551 5549 5546 5544 5541 5538 5536 5533 5531 5528 5526 5524 5522 5520 5518 5516 5514 5512 5511 5509 5508 5508 5507 5506 5506 5506 5506 5506 5507 5507 5508 5508 5509 5510 5511
5560 5558 5555 5553 5551 5548 5546 5543 5541 5538 5536 5533 5530 5528 5526 5523 5521 5519 5517 5515 5513 5511 5509 5507 5505 5503 5502 5500 5499 5498 5497 5497 5496 5496 5496 5497 5497 5497 5498 5498 5499 5500 5501